When you browse on this site, cookies collect data to enhance your experience and personalize the content and advertising you see.
Visit our Privacy Policy to learn more. By continuing to use the site, you agree to this use of cookies and data.
  • In Latvia
  • List of Countries
  • For 7 days
  • Water Temperature
  • Weather Map
  • Weather Widgets
  • user-avatar
    Login

    Hourly Weather Neshville

    Today, 26 May, Tuesday

    Time Temperature Precipitation Wind Pressure Humidity
    00:00 +23°C° 0 mm 4 mps 750 mmHg 79%
    01:00 +24°C° 0 mm 3 mps 750 mmHg 79%
    02:00 +22°C° 0 mm 3 mps 750 mmHg 80%
    03:00 +22°C° 0 mm 3 mps 749 mmHg 81%
    04:00 +22°C° 0 mm 3 mps 750 mmHg 81%
    05:00 +22°C° 0 mm 3 mps 750 mmHg 80%
    06:00 +24°C° 0 mm 3 mps 751 mmHg 79%
    07:00 +24°C° 0 mm 3 mps 751 mmHg 77%
    08:00 +24°C° 0 mm 3 mps 751 mmHg 74%
    09:00 +25°C° 0 mm 3 mps 751 mmHg 72%
    10:00 +27°C° 0 mm 4 mps 751 mmHg 66%
    11:00 +28°C° 0 mm 4 mps 751 mmHg 60%
    12:00 +30°C° 0 mm 4 mps 751 mmHg 54%
    13:00 +30°C° 0.2 mm 5 mps 750 mmHg 55%
    14:00 +29°C° 0.2 mm 5 mps 750 mmHg 55%
    15:00 +29°C° 0.2 mm 5 mps 750 mmHg 56%
    16:00 +27°C° 0 mm 5 mps 750 mmHg 61%
    17:00 +26°C° 0 mm 4 mps 750 mmHg 66%
    18:00 +25°C° 0 mm 3 mps 750 mmHg 70%
    19:00 +25°C° 0 mm 3 mps 750 mmHg 69%
    20:00 +23°C° 0 mm 4 mps 750 mmHg 68%
    21:00 +22°C° 0 mm 4 mps 750 mmHg 67%
    22:00 +22°C° 0 mm 4 mps 750 mmHg 66%
    23:00 +22°C° 0 mm 4 mps 750 mmHg 65%

    Tomorrow, 27 May, Wednesday

    Time Temperature Precipitation Wind Pressure Humidity
    00:00 +22°C° 0 mm 4 mps 750 mmHg 64%
    01:00 +21°C° 0 mm 3 mps 749 mmHg 66%
    02:00 +21°C° 0 mm 3 mps 749 mmHg 69%
    03:00 +21°C° 0 mm 3 mps 749 mmHg 72%
    04:00 +21°C° 0.9 mm 3 mps 749 mmHg 77%
    05:00 +20°C° 0.9 mm 3 mps 749 mmHg 82%
    06:00 +20°C° 0.9 mm 3 mps 750 mmHg 87%
    07:00 +21°C° 1 mm 3 mps 750 mmHg 87%
    08:00 +21°C° 1 mm 3 mps 750 mmHg 87%
    09:00 +21°C° 1 mm 3 mps 750 mmHg 87%
    10:00 +22°C° 0 mm 4 mps 750 mmHg 83%
    11:00 +25°C° 0 mm 4 mps 750 mmHg 79%
    12:00 +26°C° 0 mm 4 mps 750 mmHg 75%
    13:00 +26°C° 1 mm 4 mps 749 mmHg 75%
    14:00 +27°C° 1 mm 4 mps 748 mmHg 75%
    15:00 +28°C° 1 mm 3 mps 748 mmHg 75%
    16:00 +27°C° 2.5 mm 3 mps 748 mmHg 77%
    17:00 +26°C° 2.5 mm 3 mps 748 mmHg 79%
    18:00 +26°C° 2.5 mm 3 mps 748 mmHg 81%
    19:00 +24°C° 2.4 mm 2 mps 748 mmHg 81%
    20:00 +23°C° 2.4 mm 2 mps 748 mmHg 81%
    21:00 +22°C° 2.4 mm 1 mps 748 mmHg 81%
    22:00 +21°C° 6.4 mm 1 mps 748 mmHg 83%
    23:00 +21°C° 6.4 mm 1 mps 748 mmHg 86%

    Day after tomorrow, 28 May, Thursday

    Time Temperature Precipitation Wind Pressure Humidity
    00:00 +20°C° 6.4 mm 1 mps 748 mmHg 89%
    01:00 +19°C° 0.1 mm 2 mps 748 mmHg 89%
    02:00 +19°C° 0.1 mm 2 mps 748 mmHg 90%
    03:00 +19°C° 0.1 mm 2 mps 748 mmHg 91%
    04:00 +20°C° 0.1 mm 2 mps 748 mmHg 91%
    05:00 +21°C° 0.1 mm 2 mps 748 mmHg 91%
    06:00 +23°C° 0.1 mm 2 mps 748 mmHg 91%
    07:00 +24°C° 0 mm 3 mps 748 mmHg 87%
    08:00 +25°C° 0 mm 3 mps 749 mmHg 83%
    09:00 +26°C° 0 mm 4 mps 749 mmHg 79%
    10:00 +27°C° 0.3 mm 4 mps 749 mmHg 75%
    11:00 +28°C° 0.3 mm 4 mps 749 mmHg 71%
    12:00 +29°C° 0.3 mm 4 mps 749 mmHg 66%
    13:00 +29°C° 0.3 mm 4 mps 748 mmHg 64%
    14:00 +29°C° 0.3 mm 4 mps 748 mmHg 61%
    15:00 +29°C° 0.3 mm 4 mps 748 mmHg 59%
    16:00 +28°C° 0.1 mm 4 mps 748 mmHg 61%
    17:00 +27°C° 0.1 mm 3 mps 748 mmHg 64%
    18:00 +27°C° 0.1 mm 3 mps 748 mmHg 66%
    19:00 +26°C° 0 mm 3 mps 749 mmHg 69%
    20:00 +25°C° 0 mm 2 mps 749 mmHg 71%
    21:00 +24°C° 0 mm 2 mps 750 mmHg 74%
    22:00 +23°C° 0 mm 2 mps 750 mmHg 76%
    23:00 +22°C° 0 mm 1 mps 750 mmHg 78%

    29 May, Friday

    Time Temperature Precipitation Wind Pressure Humidity
    00:00 +22°C° 0 mm 1 mps 749 mmHg 81%
    01:00 +22°C° 0.1 mm 1 mps 749 mmHg 81%
    02:00 +22°C° 0.1 mm 1 mps 749 mmHg 81%
    03:00 +22°C° 0.1 mm 1 mps 749 mmHg 81%
    04:00 +21°C° 0 mm 2 mps 750 mmHg 82%
    05:00 +21°C° 0 mm 2 mps 750 mmHg 82%
    06:00 +21°C° 0 mm 2 mps 750 mmHg 83%
    07:00 +23°C° 0.3 mm 2 mps 750 mmHg 78%
    08:00 +25°C° 0.3 mm 3 mps 750 mmHg 74%
    09:00 +26°C° 0.3 mm 3 mps 750 mmHg 69%
    10:00 +27°C° 0.5 mm 3 mps 750 mmHg 67%
    11:00 +27°C° 0.5 mm 3 mps 750 mmHg 64%
    12:00 +28°C° 0.5 mm 4 mps 750 mmHg 62%
    13:00 +28°C° 0.6 mm 4 mps 749 mmHg 63%
    14:00 +28°C° 0.6 mm 4 mps 749 mmHg 64%
    15:00 +28°C° 0.6 mm 4 mps 749 mmHg 65%
    16:00 +27°C° 0.6 mm 3 mps 749 mmHg 69%
    17:00 +26°C° 0.6 mm 3 mps 749 mmHg 74%
    18:00 +25°C° 0.6 mm 2 mps 749 mmHg 78%
    19:00 +24°C° 0.1 mm 2 mps 749 mmHg 80%
    20:00 +23°C° 0.1 mm 2 mps 749 mmHg 82%
    21:00 +23°C° 0.1 mm 2 mps 750 mmHg 83%
    22:00 +21°C° 0 mm 2 mps 749 mmHg 85%
    23:00 +21°C° 0 mm 2 mps 749 mmHg 87%

    30 May, Saturday

    Time Temperature Precipitation Wind Pressure Humidity
    00:00 +20°C° 0 mm 2 mps 749 mmHg 89%
    01:00 +20°C° 0 mm 2 mps 749 mmHg 90%
    02:00 +20°C° 0 mm 2 mps 749 mmHg 91%
    03:00 +19°C° 0 mm 3 mps 749 mmHg 92%
    04:00 +19°C° 0 mm 3 mps 750 mmHg 91%
    05:00 +19°C° 0 mm 3 mps 750 mmHg 91%
    06:00 +19°C° 0 mm 3 mps 751 mmHg 91%
    07:00 +20°C° 0 mm 3 mps 751 mmHg 89%
    08:00 +20°C° 0 mm 3 mps 751 mmHg 86%
    09:00 +21°C° 0 mm 3 mps 751 mmHg 84%
    10:00 +22°C° 0 mm 3 mps 751 mmHg 77%
    11:00 +23°C° 0 mm 4 mps 751 mmHg 70%
    12:00 +26°C° 0 mm 4 mps 751 mmHg 63%
    13:00 +26°C° 0 mm 4 mps 751 mmHg 60%
    14:00 +26°C° 0 mm 5 mps 751 mmHg 58%
    15:00 +26°C° 0 mm 5 mps 750 mmHg 56%
    16:00 +25°C° 0 mm 5 mps 751 mmHg 59%
    17:00 +23°C° 0 mm 4 mps 751 mmHg 63%
    18:00 +22°C° 0 mm 4 mps 751 mmHg 67%
    19:00 +21°C° 0 mm 4 mps 751 mmHg 71%
    20:00 +20°C° 0 mm 4 mps 752 mmHg 75%
    21:00 +19°C° 0 mm 3 mps 752 mmHg 78%
    22:00 +18°C° 0 mm 3 mps 752 mmHg 78%
    23:00 +17°C° 0 mm 3 mps 752 mmHg 77%

    31 May, Sunday

    Time Temperature Precipitation Wind Pressure Humidity
    00:00 +16°C° 0 mm 3 mps 752 mmHg 77%
    01:00 +16°C° 0 mm 3 mps 752 mmHg 78%
    02:00 +14°C° 0 mm 3 mps 753 mmHg 79%
    03:00 +14°C° 0 mm 3 mps 753 mmHg 80%
    04:00 +14°C° 0 mm 3 mps 753 mmHg 79%
    05:00 +14°C° 0 mm 3 mps 754 mmHg 78%
    06:00 +14°C° 0 mm 4 mps 754 mmHg 77%
    07:00 +17°C° 0 mm 4 mps 754 mmHg 72%
    08:00 +18°C° 0 mm 4 mps 754 mmHg 67%
    09:00 +20°C° 0 mm 4 mps 754 mmHg 62%
    10:00 +21°C° 0 mm 4 mps 754 mmHg 59%
    11:00 +22°C° 0 mm 5 mps 754 mmHg 56%
    12:00 +23°C° 0 mm 5 mps 754 mmHg 53%
    13:00 +23°C° 0 mm 5 mps 754 mmHg 53%
    14:00 +23°C° 0 mm 4 mps 754 mmHg 53%
    15:00 +23°C° 0 mm 4 mps 754 mmHg 53%
    16:00 +22°C° 0 mm 4 mps 754 mmHg 57%
    17:00 +21°C° 0 mm 4 mps 754 mmHg 60%
    18:00 +20°C° 0 mm 4 mps 754 mmHg 64%
    19:00 +19°C° 0 mm 4 mps 754 mmHg 64%
    20:00 +18°C° 0 mm 4 mps 755 mmHg 64%
    21:00 +17°C° 0 mm 4 mps 755 mmHg 64%
    22:00 +15°C° 0 mm 4 mps 755 mmHg 68%
    23:00 +14°C° 0 mm 3 mps 755 mmHg 72%
    Show more